Weather History for VANP - March, 2013

Change the Weather History Date:

Sunday, March 17, 2013

  Actual Average Record
Temperature  
Mean Temperature 77 °F -  
Max Temperature 90 °F 102 °F - ()
Min Temperature 64 °F 72 °F - ()
Cooling Degree Days 12    
Growing Degree Days 27 (Base 50)    
Moisture  
Dew Point 58 °F    
Average Humidity 49    
Maximum Humidity 73    
Minimum Humidity 28    
Precipitation  
Precipitation 0.00 in 0.01 in - ()
Sea Level Pressure  
Sea Level Pressure 29.98 in    
Wind  
Wind Speed 5 mph ()    
Max Wind Speed 9 mph    
Max Gust Speed -    
Visibility 2.7 miles    
Events      
T = Trace of Precipitation, MM = Missing Value Source: Averaged Metar Reports

Daily Weather History Graph

Daily Weather History Graph

Search for Another Location

Airport or City:

Trip Planner

Search our weather history database for the weather conditions in past years. The results will help you decide how hot, cold, wet, or windy it might be!

Date:

Astronomy

Mar. 17, 2013 Rise Set
Actual Time 6:20 AM IST 6:23 PM IST
Civil Twilight 5:58 AM IST 6:45 PM IST
Nautical Twilight 5:32 AM IST 7:11 PM IST
Astronomical Twilight 5:07 AM IST 7:37 PM IST
Moon 9:52 AM IST (3/17) 11:19 PM IST (3/17)
Length of Visible Light 12h 47m
Length of Day
12h 03m
Waxing Crescent, 28% of the Moon is Illuminated
Mar 17
Waxing Crescent
Mar 19
First Quarter
Mar 27
Full
Apr 3
Last Quarter
Apr 10
New

Hourly Weather History & Observations

Time (IST) Temp. Heat Index Dew Point Humidity Pressure Visibility Wind Dir Wind Speed Gust Speed Precip Events Conditions
12:10 AM 77.0 °F - 60.8 °F 57% 30.01 in 2.5 mi East 3.5 mph - N/A   Haze
1:10 AM 73.4 °F - 59.0 °F 61% 30.04 in 2.5 mi NNE 9.2 mph - N/A   Haze
2:10 AM 69.8 °F - 57.2 °F 64% 30.04 in 2.5 mi NNE 9.2 mph - N/A   Haze
2:30 AM 67 °F - 60 °F 70% 30.00 in 2 mi NNE 6.9 mph - -  
4:10 AM 66.2 °F - 57.2 °F 73% 30.01 in 2.5 mi NE 8.1 mph - N/A   Haze
5:30 AM 66 °F - 57 °F 65% 30.02 in 2 mi NE 6.9 mph - -   Haze
6:10 AM 68.0 °F - 55.4 °F 64% 30.04 in 2.5 mi ENE 5.8 mph - N/A   Haze
7:10 AM 68.0 °F - 55.4 °F 64% 30.06 in 3.1 mi ENE 4.6 mph - N/A   Haze
8:10 AM 69.8 °F - 53.6 °F 56% 30.06 in 3.1 mi NE 3.5 mph - N/A   Haze
8:30 AM 72 °F - 57 °F 50% 30.06 in 2 mi East 5.8 mph - -   Haze
9:10 AM 75.2 °F - 57.2 °F 53% 30.06 in 3.7 mi East 6.9 mph - N/A   Partly Cloudy
10:10 AM 78.8 °F - 57.2 °F 47% 30.06 in 3.7 mi East 9.2 mph - N/A   Partly Cloudy
11:10 AM 84.2 °F 83.5 °F 57.2 °F 40% 30.06 in 3.7 mi ENE 6.9 mph - N/A   Unknown
11:30 AM 84 °F - 58 °F 31% 30.01 in 2 mi East 9.2 mph - -   Scattered Clouds
12:10 PM 86.0 °F 85.4 °F 59.0 °F 40% 30.04 in 3.7 mi East 9.2 mph - N/A   Unknown
1:10 PM 89.6 °F 88.9 °F 59.0 °F 36% 30.01 in 3.7 mi SE 9.2 mph - N/A   Unknown
2:10 PM 91.4 °F 90.7 °F 59.0 °F 34% 29.98 in 3.7 mi East 6.9 mph - N/A   Unknown
2:30 PM 90 °F - 61 °F 28% 29.88 in 2 mi West 9.2 mph - -   Scattered Clouds
3:10 PM 93.2 °F 92.6 °F 59.0 °F 32% 29.92 in 3.7 mi NE 4.6 mph - N/A   Unknown
4:10 PM 93.2 °F 92.6 °F 59.0 °F 32% 29.89 in 3.7 mi East 4.6 mph - N/A   Unknown
5:30 PM 87 °F - 59 °F 29% 29.84 in 2 mi SSW 3.5 mph - -   Haze
7:10 PM 84.2 °F 83.8 °F 59.0 °F 42% 29.89 in 2.5 mi Calm Calm - N/A   Haze
8:10 PM 82.4 °F 82.5 °F 59.0 °F 45% 29.89 in 2.5 mi East 2.3 mph - N/A   Haze
8:30 PM 75 °F - 61 °F 52% 29.90 in 1 mi East 2.3 mph - -   Haze
9:10 PM 78.8 °F - 59.0 °F 51% 29.92 in 2.5 mi East 3.5 mph - N/A   Haze
10:10 PM 77.0 °F - 57.2 °F 50% 29.95 in 2.5 mi ESE 2.3 mph - N/A   Haze
11:10 PM 77.0 °F - 57.2 °F 50% 29.95 in 2.5 mi East 2.3 mph - N/A   Haze
11:30 PM 72 °F - 59 °F 55% 29.91 in 1 mi East 2.3 mph - -   Haze